Location: Moy Burn
(57.3833°N, 4.0667°W)
Time: 12:07:18
(UTC+00:00)

Cosmos 1140 Rocket - Pass Details

Date: 08 August 2020
Orbit: 745 x 767 km, 74.1° (Epoch: 21 September)

Event Time Altitude Azimuth Distance (km) Brightness Sun altitude
Rises 22:26:46 0° 221° (SW) 3,228 6.5 -13.0°
Reaches altitude 10° 22:29:10 10° 225° (SW) 2,307 5.8 -13.2°
Maximum altitude 22:34:21 61° 305° (NW) 876 4.1 -13.5°
Drops below altitude 10° 22:39:34 10° 26° (NNE) 2,318 6.5 -13.8°
Sets 22:42:00 0° 30° (NNE) 3,246 7.3 -13.9°
